[[{"header":{"parameterUnit":"m.s-1","parameterCategory":1,"la1":30.2992,"la2":30.254,"lo1":-89.0895,"lo2":-89.0443,"dy":0.0025,"dx":0.0025,"nx":19,"ny":19,"refTime":"2026-05-20T21:00:00:Z","depth":0,"parameterNumber":2,"parameterNumberName":"U-component_of_WINDS"},"data":[0,0,0,-1.3379,-1.3374,-1.314,-1.3139,-1.2871,-1.2869,0,0,0,0,0,0,0,0,0,0,0,-1.3469,-1.3468,-1.3379,-1.3374,-1.314,-1.3139,-1.2872,-1.2869,0,0,0,0,0,0,0,0,0,0,0,-1.3469,-1.3468,-1.3467,-1.3373,-1.314,-1.3139,-1.2872,-1.3037,0,0,0,0,0,0,0,0,0,0,-1.3259,-1.3362,-1.3468,-1.3466,-1.3372,-1.314,-1.3138,-1.3045,-1.3027,-1.2992,0,-1.2967,0,-1.2914,-1.2854,-1.2853,0,0,0,-1.3358,-1.3377,-1.3296,-1.3466,-1.337,-1.3141,-1.3241,-1.3034,-1.3014,-1.2969,-1.2963,-1.2952,-1.291,-1.2852,-1.2851,-1.2705,-1.2705,0,0,-1.3371,-1.3437,-1.331,-1.3284,-1.3323,-1.3249,-1.3234,-1.3022,-1.3019,-1.2962,-1.2945,-1.2905,-1.285,-1.2849,-1.2704,-1.2705,0,0,0,-1.3419,-1.3447,-1.337,-1.3296,-1.3251,-1.3242,-1.3225,-1.3028,-1.2998,-1.2942,-1.2902,-1.2849,-1.2846,-1.2704,-1.2704,-1.2772,0,0,0,-1.3426,-1.3475,-1.3376,-1.3414,-1.3256,-1.3137,-1.3238,-1.3013,-1.2987,-1.2904,-1.2849,-1.2844,-1.2704,-1.2704,-1.277,-1.2793,0,0,0,-1.3477,-1.348,-1.3454,-1.3418,-1.332,-1.3139,-1.3096,-1.3006,-1.2963,-1.2853,-1.2843,-1.2704,-1.2704,-1.2768,-1.279,-1.2775,0,0,0,-1.355,-1.3516,-1.3456,-1.3402,-1.3323,-1.3184,-1.3096,-1.2989,-1.2902,-1.2848,-1.2704,-1.2704,-1.2768,-1.2787,-1.2773,-1.2774,-1.2781,0,0,-1.3543,-1.3517,-1.348,-1.342,-1.3309,-1.3214,-1.3112,-1.2968,-1.2896,-1.2773,-1.2768,-1.2771,-1.2789,-1.2774,-1.2795,-1.2801,0,0,0,-1.3501,-1.3475,-1.3431,-1.3353,-1.3245,-1.3153,-1.302,-1.2967,-1.2859,-1.2847,-1.2759,-1.2768,-1.2757,-1.2754,-1.2759,-1.2745,-1.2706,-1.2706,-1.2706,-1.3585,-1.3497,-1.3431,-1.3316,-1.3241,-1.3105,-1.3036,-1.2941,-1.2872,-1.2854,-1.2816,-1.284,-1.2839,-1.2842,-1.2829,-1.2809,-1.2809,-1.281,-1.281,-1.3568,-1.3518,-1.3431,-1.3335,-1.3243,-1.3161,-1.3029,-1.2983,-1.2893,-1.286,-1.2845,-1.2817,-1.2852,-1.2835,-1.2814,-1.2813,-1.2813,-1.2812,-1.2812,-1.3613,-1.3574,-1.3512,-1.3392,-1.3308,-1.3192,-1.3111,-1.3029,-1.295,-1.2936,-1.2888,-1.2887,-1.2875,-1.2919,-1.2919,-1.2919,-1.2919,-1.2919,-1.292,-1.3685,-1.3613,-1.3555,-1.344,-1.338,-1.329,-1.3155,-1.3093,-1.3003,-1.295,-1.2949,-1.2883,-1.2872,-1.2871,-1.292,-1.292,-1.292,-1.292,-1.292,-1.37,-1.3684,-1.3595,-1.3535,-1.3393,-1.3317,-1.3214,-1.3096,-1.3033,-1.2996,-1.2933,-1.2939,-1.2905,-1.29,-1.2899,-1.2952,-1.2952,-1.2952,-1.2952,-1.3738,-1.3714,-1.3606,-1.3516,-1.3418,-1.3317,-1.322,-1.3115,-1.3004,-1.2959,-1.294,-1.2931,-1.293,-1.2897,-1.2893,-1.289,-1.294,-1.294,-1.294,-1.3743,-1.3706,-1.3639,-1.3532,-1.3415,-1.3317,-1.3223,-1.3123,-1.2993,-1.2938,-1.2923,-1.2924,-1.2909,-1.2908,-1.2852,-1.2846,-1.284,0,0]},{"header":{"parameterUnit":"m.s-1","parameterCategory":1,"la1":30.2992,"la2":30.254,"lo1":-89.0895,"lo2":-89.0443,"dy":0.0025,"dx":0.0025,"nx":19,"ny":19,"refTime":"2026-05-20T21:00:00:Z","depth":0,"parameterNumber":3,"parameterNumberName":"V-component_of_WINDS"},"data":[0,0,0,3.7925,3.7925,3.7913,3.7913,3.7904,3.7904,0,0,0,0,0,0,0,0,0,0,0,3.7933,3.7933,3.7925,3.7925,3.7913,3.7913,3.7904,3.7904,0,0,0,0,0,0,0,0,0,0,0,3.7933,3.7933,3.7933,3.7925,3.7913,3.7913,3.7904,3.791,0,0,0,0,0,0,0,0,0,0,3.7921,3.7933,3.7933,3.7933,3.7925,3.7913,3.7913,3.7911,3.791,3.7912,0,3.7917,0,3.7911,3.7904,3.7904,0,0,0,3.7921,3.7933,3.7926,3.7933,3.7925,3.7913,3.7917,3.791,3.791,3.7912,3.7916,3.7916,3.791,3.7904,3.7904,3.7937,3.7937,0,0,3.7921,3.7933,3.7927,3.7926,3.793,3.7918,3.7917,3.791,3.7915,3.7916,3.7916,3.791,3.7904,3.7904,3.7936,3.7937,0,0,0,3.7926,3.7933,3.7926,3.7927,3.7924,3.7917,3.7917,3.7915,3.7912,3.7915,3.791,3.7904,3.7904,3.7936,3.7936,3.7967,0,0,0,3.7926,3.7936,3.7927,3.7934,3.7925,3.792,3.7922,3.7913,3.7912,3.791,3.7904,3.7904,3.7935,3.7936,3.7966,3.798,0,0,0,3.7932,3.7937,3.7937,3.7934,3.793,3.792,3.7916,3.7912,3.7909,3.7904,3.7904,3.7935,3.7936,3.7964,3.7977,3.7995,0,0,0,3.7941,3.7961,3.7937,3.7958,3.793,3.7939,3.7916,3.7921,3.7921,3.7904,3.7936,3.7936,3.7964,3.7976,3.7993,3.8013,3.8022,0,0,3.7973,3.7965,3.7976,3.7955,3.7972,3.794,3.796,3.7947,3.7934,3.7937,3.7937,3.7966,3.7977,3.7995,3.8064,3.8071,0,0,0,3.799,3.7999,3.8001,3.8003,3.7995,3.7991,3.7974,3.797,3.7972,3.7938,3.7975,3.7982,3.7991,3.8,3.8007,3.8016,3.794,3.794,3.794,3.8051,3.8037,3.8056,3.8042,3.8044,3.8029,3.803,3.8021,3.8003,3.8013,3.8014,3.8058,3.8069,3.8073,3.8083,3.8021,3.8021,3.8021,3.8021,3.8098,3.8109,3.809,3.8101,3.8087,3.8095,3.8082,3.807,3.8077,3.8054,3.8062,3.8041,3.8082,3.8089,3.8023,3.8023,3.8023,3.8023,3.8022,3.8138,3.8141,3.8138,3.8143,3.8147,3.8131,3.814,3.8125,3.811,3.8118,3.812,3.8119,3.8119,3.8119,3.812,3.812,3.812,3.812,3.812,3.8181,3.8177,3.8187,3.8185,3.8186,3.8186,3.8174,3.8174,3.8171,3.8159,3.8159,3.8143,3.8087,3.8076,3.8123,3.8122,3.8122,3.8122,3.8121,3.8238,3.8224,3.824,3.8242,3.824,3.8248,3.8229,3.8233,3.823,3.8236,3.8218,3.8179,3.817,3.8165,3.8155,3.822,3.822,3.822,3.822,3.8273,3.8268,3.8284,3.8289,3.8291,3.8278,3.8298,3.829,3.8278,3.8276,3.8264,3.8249,3.8245,3.8238,3.8232,3.8222,3.8303,3.8303,3.8303,3.8309,3.8304,3.8324,3.8315,3.8313,3.8312,3.8332,3.8338,3.8321,3.8306,3.8276,3.8272,3.8248,3.824,3.8224,3.8214,3.8197,0,0]}]]